Orbital Elements at Epoch 2459000.5 (2020-May-31.0) TDB
Reference: JPL 18 (heliocentric ecliptic J2000)
Element | Value | Uncertainty (1-sigma) | Units |
e | .05682907880164625 | 4.2673e-08 | |
a | 2.268332305735603 | 6.7169e-09 | au |
q | 2.139425070384634 | 9.7114e-08 | au |
i | 1.772847913748969 | 4.0275e-06 | deg |
node | 293.0681032919078 | 0.00012837 | deg |
peri | 214.6999190390577 | 0.00013284 | deg |
M | 18.51671118258627 | 3.2725e-05 | deg |
tp | 2458936.317032052554 (2020-Mar-27.81703205) | 0.00011346 | TDB |
period | 1247.838681137397 3.42 | 5.5426e-06 1.517e-08 | d yr |
n | .2884988303711359 | 1.2814e-09 | deg/d |
Q | 2.397239541086571 | 7.0986e-09 | au |
|
| | Orbit Determination Parameters
Additional Information
|